Time,TemperatureF,DewpointF,PressureIn,WindDirection,WindDirectionDegrees,WindSpeedMPH,WindSpeedGustMPH,Humidity,HourlyPrecipIn,Conditions,Clouds,dailyrainin,SoftwareType,DateUTC
2013-12-02 00:12:00,21.0,19.0,29.83,East,89,5.0,8.0,92,0.00,,,0.00,,2013-12-02 06:12:00,
2013-12-02 00:22:00,21.0,19.0,29.82,East,98,6.0,10.0,93,0.00,,,0.00,,2013-12-02 06:22:00,
2013-12-02 00:42:00,21.0,19.0,29.82,East,93,5.0,9.0,93,0.00,,,0.00,,2013-12-02 06:42:00,
2013-12-02 00:52:00,21.0,19.0,29.80,East,86,7.0,10.0,92,0.00,,,0.00,,2013-12-02 06:52:00,
2013-12-02 01:12:00,21.0,19.0,29.80,East,96,6.0,9.0,92,0.00,,,0.00,,2013-12-02 07:12:00,
2013-12-02 01:21:00,22.0,20.0,29.79,East,86,7.0,10.0,92,0.00,,,0.00,,2013-12-02 07:21:00,
2013-12-02 01:42:00,22.0,20.0,29.79,ESE,122,6.0,10.0,92,0.00,,,0.00,,2013-12-02 07:42:00,
2013-12-02 01:52:00,22.0,20.0,29.78,East,79,6.0,8.0,92,0.00,,,0.00,,2013-12-02 07:52:00,
2013-12-02 02:22:00,22.0,20.0,29.77,East,87,6.0,9.0,92,0.00,,,0.00,,2013-12-02 08:22:00,
2013-12-02 02:42:00,22.0,20.0,29.77,ESE,108,5.0,8.0,92,0.00,,,0.00,,2013-12-02 08:42:00,
2013-12-02 02:52:00,22.0,20.0,29.77,East,82,5.0,8.0,92,0.00,,,0.00,,2013-12-02 08:52:00,
2013-12-02 03:11:00,22.0,20.0,29.77,East,89,5.0,8.0,92,0.00,,,0.00,,2013-12-02 09:11:00,
2013-12-02 03:22:00,22.0,20.0,29.76,East,86,5.0,7.0,93,0.00,,,0.00,,2013-12-02 09:22:00,
2013-12-02 03:32:00,22.0,20.0,29.76,East,86,5.0,7.0,93,0.00,,,0.00,,2013-12-02 09:32:00,
2013-12-02 03:43:00,22.0,20.0,29.76,East,86,5.0,7.0,93,0.00,,,0.00,,2013-12-02 09:43:00,
2013-12-02 03:54:00,22.0,20.0,29.74,East,80,5.0,8.0,93,0.00,,,0.00,,2013-12-02 09:54:00,
2013-12-02 04:23:00,22.0,20.0,29.73,East,90,7.0,9.0,93,0.00,,,0.00,,2013-12-02 10:23:00,
2013-12-02 04:42:00,22.0,20.0,29.73,ENE,77,6.0,8.0,93,0.00,,,0.00,,2013-12-02 10:42:00,
2013-12-02 04:52:00,22.0,20.0,29.72,East,82,7.0,9.0,92,0.00,,,0.00,,2013-12-02 10:52:00,
2013-12-02 05:12:00,23.0,21.0,29.72,East,91,6.0,9.0,92,0.00,,,0.00,,2013-12-02 11:12:00,
2013-12-02 05:22:00,23.0,21.0,29.71,East,83,6.0,9.0,92,0.00,,,0.00,,2013-12-02 11:22:00,
2013-12-02 05:42:00,23.0,21.0,29.71,East,84,6.0,10.0,92,0.00,,,0.00,,2013-12-02 11:42:00,
2013-12-02 05:52:00,23.0,21.0,29.70,ENE,78,6.0,10.0,91,0.00,,,0.00,,2013-12-02 11:52:00,
2013-12-02 06:12:00,23.0,21.0,29.70,ENE,77,7.0,11.0,91,0.00,,,0.00,,2013-12-02 12:12:00,
2013-12-02 06:22:00,23.0,21.0,29.69,East,93,7.0,9.0,91,0.00,,,0.00,,2013-12-02 12:22:00,
2013-12-02 06:42:00,23.0,21.0,29.69,ENE,75,9.0,11.0,91,0.00,,,0.00,,2013-12-02 12:42:00,
2013-12-02 06:52:00,22.0,20.0,29.69,ENE,78,6.0,8.0,92,0.00,,,0.00,,2013-12-02 12:52:00,
2013-12-02 07:12:00,22.0,20.0,29.69,ENE,74,7.0,10.0,91,0.00,,,0.00,,2013-12-02 13:12:00,
2013-12-02 07:22:00,22.0,20.0,29.69,East,84,8.0,11.0,91,0.00,,,0.00,,2013-12-02 13:22:00,
2013-12-02 07:42:00,22.0,20.0,29.68,East,86,7.0,12.0,90,0.00,,,0.00,,2013-12-02 13:42:00,
2013-12-02 07:52:00,22.0,20.0,29.68,East,79,6.0,11.0,90,0.00,,,0.00,,2013-12-02 13:52:00,
2013-12-02 08:11:00,22.0,20.0,29.68,East,96,9.0,11.0,90,0.00,,,0.00,,2013-12-02 14:11:00,
2013-12-02 08:22:00,23.0,21.0,29.67,East,87,8.0,11.0,90,0.00,,,0.00,,2013-12-02 14:22:00,
2013-12-02 08:42:00,22.0,19.0,29.67,East,81,8.0,11.0,89,0.00,,,0.00,,2013-12-02 14:42:00,
2013-12-02 08:52:00,23.0,20.0,29.67,East,80,8.0,12.0,89,0.00,,,0.00,,2013-12-02 14:52:00,
2013-12-02 09:12:00,23.0,20.0,29.68,East,84,7.0,11.0,89,0.00,,,0.00,,2013-12-02 15:12:00,
2013-12-02 09:21:00,23.0,20.0,29.67,ENE,68,6.0,11.0,89,0.00,,,0.00,,2013-12-02 15:21:00,
2013-12-02 09:43:00,23.0,21.0,29.67,East,79,7.0,9.0,90,0.00,,,0.00,,2013-12-02 15:43:00,
2013-12-02 09:54:00,23.0,21.0,29.67,ENE,71,6.0,9.0,90,0.00,,,0.00,,2013-12-02 15:54:00,
2013-12-02 10:13:00,23.0,21.0,29.67,ENE,64,7.0,11.0,90,0.00,,,0.00,,2013-12-02 16:13:00,
2013-12-02 10:23:00,23.0,21.0,29.67,ENE,70,6.0,9.0,91,0.00,,,0.00,,2013-12-02 16:23:00,
2013-12-02 10:42:00,23.0,21.0,29.67,ENE,70,6.0,9.0,91,0.00,,,0.00,,2013-12-02 16:42:00,
2013-12-02 10:53:00,23.0,21.0,29.67,ENE,77,8.0,10.0,91,0.00,,,0.00,,2013-12-02 16:53:00,
2013-12-02 11:12:00,23.0,21.0,29.67,ENE,57,6.0,10.0,92,0.00,,,0.00,,2013-12-02 17:12:00,
2013-12-02 11:22:00,23.0,21.0,29.67,ENE,60,6.0,10.0,92,0.00,,,0.00,,2013-12-02 17:22:00,
2013-12-02 11:42:00,24.0,22.0,29.67,ENE,69,6.0,10.0,92,0.00,,,0.00,,2013-12-02 17:42:00,
2013-12-02 11:52:00,24.0,22.0,29.66,ENE,69,7.0,9.0,91,0.00,,,0.00,,2013-12-02 17:52:00,
2013-12-02 12:12:00,24.0,22.0,29.66,ENE,63,6.0,9.0,91,0.00,,,0.00,,2013-12-02 18:12:00,
2013-12-02 12:22:00,24.0,22.0,29.66,ENE,63,6.0,9.0,91,0.00,,,0.00,,2013-12-02 18:22:00,
2013-12-02 12:32:00,24.0,22.0,29.66,ENE,63,6.0,9.0,91,0.00,,,0.00,,2013-12-02 18:32:00,
2013-12-02 12:53:00,25.0,22.0,29.65,NE,46,4.0,7.0,90,0.00,,,0.00,,2013-12-02 18:53:00,
2013-12-02 13:12:00,25.0,22.0,29.65,NE,36,4.0,6.0,90,0.00,,,0.00,,2013-12-02 19:12:00,
2013-12-02 13:22:00,25.0,22.0,29.65,NE,56,3.0,8.0,90,0.00,,,0.00,,2013-12-02 19:22:00,
2013-12-02 13:42:00,25.0,22.0,29.65,ENE,63,3.0,6.0,90,0.00,,,0.00,,2013-12-02 19:42:00,
2013-12-02 13:52:00,25.0,23.0,29.64,East,92,5.0,8.0,91,0.00,,,0.00,,2013-12-02 19:52:00,
2013-12-02 14:11:00,25.0,22.0,29.64,NE,46,5.0,8.0,90,0.00,,,0.00,,2013-12-02 20:11:00,
2013-12-02 14:21:00,25.0,22.0,29.63,ENE,63,6.0,10.0,90,0.00,,,0.00,,2013-12-02 20:21:00,
2013-12-02 14:42:00,26.0,23.0,29.63,ENE,72,6.0,12.0,90,0.00,,,0.00,,2013-12-02 20:42:00,
2013-12-02 14:52:00,26.0,24.0,29.62,ENE,67,5.0,8.0,91,0.00,,,0.00,,2013-12-02 20:52:00,
2013-12-02 15:11:00,26.0,24.0,29.63,NE,44,4.0,9.0,91,0.00,,,0.00,,2013-12-02 21:11:00,
2013-12-02 15:21:00,26.0,24.0,29.63,ENE,57,3.0,7.0,92,0.00,,,0.00,,2013-12-02 21:21:00,
2013-12-02 15:43:00,26.0,24.0,29.63,NE,44,3.0,10.0,92,0.00,,,0.00,,2013-12-02 21:43:00,
2013-12-02 15:53:00,26.0,24.0,29.63,NE,40,4.0,7.0,92,0.00,,,0.00,,2013-12-02 21:53:00,
2013-12-02 16:13:00,26.0,24.0,29.64,NE,36,4.0,9.0,92,0.00,,,0.00,,2013-12-02 22:13:00,
2013-12-02 16:23:00,26.0,24.0,29.64,NE,41,4.0,7.0,92,0.00,,,0.00,,2013-12-02 22:23:00,
2013-12-02 16:43:00,26.0,24.0,29.64,NNE,24,4.0,9.0,92,0.00,,,0.00,,2013-12-02 22:43:00,
2013-12-02 16:53:00,26.0,24.0,29.65,ENE,62,5.0,9.0,92,0.00,,,0.00,,2013-12-02 22:53:00,
2013-12-02 17:12:00,26.0,24.0,29.65,ENE,59,6.0,10.0,92,0.00,,,0.00,,2013-12-02 23:12:00,
2013-12-02 17:22:00,26.0,24.0,29.66,NNE,29,5.0,9.0,92,0.00,,,0.00,,2013-12-02 23:22:00,
2013-12-02 17:42:00,26.0,24.0,29.66,ENE,65,4.0,11.0,92,0.00,,,0.00,,2013-12-02 23:42:00,
2013-12-02 17:53:00,26.0,24.0,29.67,ENE,69,4.0,10.0,92,0.00,,,0.00,,2013-12-02 23:53:00,
2013-12-02 18:11:00,26.0,24.0,29.67,NNE,16,6.0,11.0,92,0.00,,,0.00,,2013-12-03 00:11:00,
2013-12-02 18:21:00,26.0,24.0,29.67,ENE,62,4.0,18.0,92,0.00,,,0.00,,2013-12-03 00:21:00,
2013-12-02 18:42:00,25.0,23.0,29.68,NE,49,4.0,12.0,93,0.00,,,0.00,,2013-12-03 00:42:00,
2013-12-02 18:52:00,25.0,23.0,29.68,ENE,61,5.0,11.0,93,0.00,,,0.00,,2013-12-03 00:52:00,
2013-12-02 19:11:00,25.0,23.0,29.69,NNE,13,4.0,8.0,93,0.00,,,0.00,,2013-12-03 01:11:00,
2013-12-02 19:21:00,25.0,23.0,29.70,NNE,26,5.0,11.0,93,0.00,,,0.00,,2013-12-03 01:21:00,
2013-12-02 19:42:00,24.0,22.0,29.70,NE,50,6.0,14.0,93,0.00,,,0.00,,2013-12-03 01:42:00,
2013-12-02 19:52:00,24.0,22.0,29.70,NNE,32,5.0,12.0,93,0.00,,,0.00,,2013-12-03 01:52:00,
2013-12-02 20:11:00,24.0,22.0,29.70,NNE,13,6.0,13.0,93,0.00,,,0.00,,2013-12-03 02:11:00,
2013-12-02 20:21:00,24.0,22.0,29.70,NNE,27,7.0,12.0,93,0.00,,,0.00,,2013-12-03 02:21:00,
2013-12-02 20:42:00,24.0,22.0,29.70,NNE,15,5.0,11.0,93,0.00,,,0.00,,2013-12-03 02:42:00,
2013-12-02 20:52:00,24.0,22.0,29.70,ENE,70,5.0,13.0,93,0.00,,,0.00,,2013-12-03 02:52:00,
2013-12-02 21:21:00,23.0,21.0,29.71,NNE,27,7.0,14.0,93,0.00,,,0.00,,2013-12-03 03:21:00,
2013-12-02 21:43:00,23.0,21.0,29.72,NE,38,6.0,14.0,93,0.00,,,0.00,,2013-12-03 03:43:00,
2013-12-02 21:53:00,23.0,21.0,29.72,NE,52,7.0,15.0,92,0.00,,,0.00,,2013-12-03 03:53:00,
2013-12-02 22:13:00,23.0,21.0,29.73,NNE,19,6.0,13.0,92,0.00,,,0.00,,2013-12-03 04:13:00,
2013-12-02 22:23:00,23.0,21.0,29.73,North,354,6.0,12.0,92,0.00,,,0.00,,2013-12-03 04:23:00,
2013-12-02 22:43:00,23.0,21.0,29.73,NNE,32,8.0,13.0,92,0.00,,,0.00,,2013-12-03 04:43:00,
2013-12-02 22:52:00,23.0,21.0,29.73,NE,40,7.0,17.0,91,0.00,,,0.00,,2013-12-03 04:52:00,
2013-12-02 23:12:00,22.0,20.0,29.72,NE,53,6.0,12.0,91,0.00,,,0.00,,2013-12-03 05:12:00,
2013-12-02 23:22:00,22.0,20.0,29.72,ENE,75,8.0,15.0,91,0.00,,,0.00,,2013-12-03 05:22:00,
2013-12-02 23:42:00,22.0,20.0,29.73,NNE,21,7.0,13.0,91,0.00,,,0.00,,2013-12-03 05:42:00,
2013-12-02 23:53:00,22.0,20.0,29.74,NNW,346,5.0,14.0,90,0.00,,,0.00,,2013-12-03 05:53:00,